GFSFLT2_850_spd_132.txt.gz
Wind_Speed
5 5 7 6 5 7 11 13 14 16 17 18 19 18 18 16 16 15 14 13 13 12 12 13 14 15 14 14 15 15 14 14
3 5 6 5 5 6 9 14 15 16 17 19 19 20 19 18 17 17 15 14 14 14 14 14 15 15 15 16 16 16 15 14
4 2 4 5 5 6 7 11 16 17 18 18 20 22 22 20 19 19 18 17 16 16 16 16 17 17 17 17 18 17 16 14
7 7 8 8 8 8 10 10 12 16 18 19 20 22 23 22 21 20 20 20 19 18 18 18 19 20 20 20 20 19 18 17
6 6 8 9 11 9 12 13 12 15 17 17 20 22 22 23 23 23 23 24 24 22 22 23 22 22 21 22 22 21 21 20
3 4 7 8 8 10 11 13 13 15 18 20 18 20 23 24 25 26 27 27 27 26 25 24 24 24 23 24 24 24 23 23
2 2 5 7 7 8 9 12 14 14 16 21 23 21 21 22 25 27 29 30 31 30 29 28 27 27 26 26 25 26 26 26
2 4 5 7 9 10 11 11 13 14 14 17 20 24 26 24 24 26 29 32 34 34 33 31 30 29 29 29 28 28 28 28
8 8 10 11 11 12 13 14 15 15 16 16 15 17 17 23 24 30 27 33 36 35 34 33 33 32 33 32 31 30 31 31
15 14 14 15 16 16 17 17 17 17 17 18 18 19 20 21 22 26 41 30 41 35 32 33 33 35 36 35 35 33 33 33
20 21 21 19 18 20 21 20 19 19 20 22 22 21 23 26 27 23 27 41 43 21 26 27 31 36 37 39 38 36 36 35
22 23 24 24 23 22 21 23 24 23 23 24 25 26 26 26 28 26 25 34 39 32 44 24 29 35 40 39 40 38 39 38
25 26 27 28 30 31 27 26 28 29 30 30 32 31 30 29 30 31 27 30 32 25 39 55 46 38 36 41 38 38 43 41
23 25 27 29 31 32 34 37 33 31 33 35 35 36 35 35 33 34 31 31 31 34 28 39 64 65 40 38 30 33 41 44
29 28 28 28 30 33 34 35 38 37 34 34 34 37 37 35 34 34 36 30 33 31 31 36 44 54 60 37 24 22 30 45
29 29 29 30 28 30 32 34 37 38 38 38 37 31 35 34 33 32 35 34 34 37 33 33 45 54 56 49 43 26 19 29
31 30 31 30 29 28 30 32 33 36 37 36 35 35 30 30 30 28 32 35 34 38 37 27 43 59 54 49 36 36 32 32
31 31 31 31 30 29 29 28 29 31 32 32 32 31 27 27 28 27 28 33 33 35 39 37 32 48 60 62 59 41 40 40
30 31 31 31 31 30 28 26 26 27 28 27 27 27 26 25 25 24 26 28 32 33 37 35 33 40 56 63 52 51 58 46
29 30 32 32 32 30 27 24 24 25 25 24 23 23 24 24 25 24 22 24 27 29 35 41 40 37 37 45 56 60 55 50

GFSFLT2_850_spd_135.txt.gz
Wind_Speed
3 1 1 2 2 4 7 9 11 14 16 17 17 17 17 16 15 14 13 13 13 13 13 14 15 15 14 13 13 14 13 12
3 4 3 4 5 5 7 10 14 12 14 18 18 19 20 19 17 17 16 15 15 15 15 15 16 17 16 15 15 16 15 14
5 6 6 6 7 6 5 6 12 15 14 15 19 21 22 21 21 20 19 18 17 17 17 17 17 18 18 17 16 18 18 17
5 7 10 9 8 7 7 8 11 11 14 15 15 19 22 23 23 22 21 21 21 19 19 19 19 21 21 20 21 20 20 19
1 4 5 6 7 7 8 9 9 11 11 14 17 18 19 23 25 25 26 25 24 23 23 23 23 23 24 23 22 21 21 20
2 3 4 6 5 5 6 7 8 8 10 12 14 17 21 23 25 26 28 28 28 28 28 27 26 25 26 25 24 23 23 22
5 6 6 7 8 8 8 9 9 10 9 9 12 15 18 22 23 26 28 29 31 31 30 30 30 28 27 28 26 25 24 24
9 10 11 12 11 12 12 12 12 12 12 11 13 15 17 17 17 24 23 26 27 28 32 33 33 31 30 30 28 28 26 27
15 15 16 17 17 16 16 17 17 17 17 16 15 15 16 17 17 15 24 25 26 23 25 32 35 35 34 32 31 30 29 28
15 17 19 20 22 23 21 20 19 20 20 21 21 21 21 22 22 18 21 19 28 27 39 30 25 36 36 35 33 31 30 30
19 20 22 23 22 22 25 26 24 23 22 23 24 25 26 26 26 26 25 24 23 23 23 32 35 33 38 34 34 33 32 31
19 21 22 23 25 24 22 23 25 27 27 27 27 27 27 29 30 30 28 28 25 24 25 25 22 48 33 28 29 32 33 34
23 25 26 28 29 30 32 32 28 27 30 32 32 31 31 31 32 32 33 32 29 26 27 27 23 26 29 37 34 31 33 34
25 26 28 29 31 32 32 33 35 38 34 32 34 33 34 34 34 34 34 35 34 28 28 29 31 34 36 37 28 31 35 37
26 27 27 28 29 30 31 32 32 33 34 37 34 33 33 34 34 35 34 36 36 34 31 33 33 36 39 40 22 30 22 24
28 28 29 29 29 29 29 30 32 32 35 36 36 34 33 31 32 33 34 35 37 38 35 35 36 36 35 44 51 31 20 34
30 29 29 29 30 29 27 26 26 28 31 33 33 32 30 31 28 28 29 30 34 37 40 36 37 41 34 38 39 50 50 32
28 28 27 29 30 28 26 25 26 27 28 30 29 28 28 27 26 24 27 28 29 34 38 40 37 39 43 33 42 39 40 39
26 26 28 31 31 27 25 23 23 25 26 27 27 26 26 27 25 26 26 27 30 31 36 39 38 38 42 43 35 44 38 36
24 26 29 32 33 29 24 23 23 23 22 23 21 23 24 25 25 24 25 27 28 29 33 34 34 38 41 39 37 37 45 48

GFSFLT2_850_spd_138.txt.gz
Wind_Speed
5 3 4 4 5 6 8 10 12 13 13 15 16 18 19 18 18 17 16 16 15 14 15 16 16 16 15 14 12 12 12 11
4 4 5 5 6 7 7 8 11 13 14 16 15 18 21 22 21 21 19 18 17 16 16 17 17 17 17 15 14 15 14 13
4 6 7 6 5 6 7 7 6 8 14 16 18 18 19 23 25 24 22 20 19 19 18 18 18 19 19 18 16 15 14 15
5 7 9 8 7 7 8 9 9 11 10 11 16 19 20 22 20 23 23 22 22 21 20 19 20 17 17 22 20 16 17 16
4 5 7 7 6 7 8 9 12 14 13 12 11 13 17 21 23 24 23 25 24 23 24 24 20 18 18 18 18 18 18 18
7 7 8 8 8 8 9 9 10 11 12 12 14 15 13 16 19 22 23 23 24 24 24 23 22 21 22 21 20 18 19 18
10 11 11 11 12 12 12 13 14 14 14 14 15 15 17 17 18 18 21 25 27 27 28 28 27 24 22 22 22 22 22 21
13 14 15 16 15 15 16 16 17 19 19 19 19 19 19 19 18 19 19 22 24 26 27 27 31 30 27 26 25 24 24 24
17 18 19 19 19 19 18 18 20 21 21 21 23 23 23 23 21 17 19 22 22 25 18 16 23 31 31 30 27 26 25 25
17 19 20 22 23 24 25 23 22 22 22 25 25 25 26 27 26 25 22 23 20 22 23 25 37 39 31 26 28 33 26 26
14 16 18 20 21 22 24 26 25 25 24 25 27 27 29 29 28 29 30 28 27 23 18 24 26 21 27 39 33 27 34 29
16 19 21 22 23 24 24 22 24 27 27 28 29 29 30 29 30 31 32 31 30 27 30 25 25 26 27 26 31 41 35 35
19 21 23 25 24 26 26 25 26 25 26 29 30 31 30 31 31 31 31 31 31 28 25 27 30 25 29 30 33 38 37 42
18 21 22 24 23 25 24 24 24 26 25 26 29 29 31 30 30 31 30 29 30 29 28 25 25 22 21 20 15 34 41 40
21 22 23 23 26 24 24 24 21 20 21 23 22 27 29 29 28 28 30 29 28 27 24 24 26 25 28 23 17 25 31 43
22 23 23 24 26 24 23 22 23 23 23 24 26 26 27 27 27 26 27 25 25 26 24 24 24 29 26 32 39 23 18 28
20 21 20 22 24 24 22 21 22 22 22 24 25 23 23 23 22 24 27 26 24 22 24 23 24 27 29 30 29 39 43 30
18 19 20 23 26 26 21 21 22 23 23 23 21 23 21 20 20 22 22 24 24 24 25 28 27 27 29 32 34 29 31 36
16 18 19 22 25 24 21 20 21 21 22 22 24 22 22 23 24 23 24 24 23 23 24 26 30 36 35 32 32 38 33 32
15 16 18 22 24 23 20 20 19 18 19 20 19 20 22 24 25 22 22 22 22 26 28 28 28 32 37 39 41 40 47 30

GFSFLT2_850_spd_144.txt.gz
Wind_Speed
2 2 4 6 8 7 9 9 10 10 11 12 13 14 16 19 20 21 20 19 19 18 17 17 16 16 15 14 13 13 13 13
4 5 6 7 8 9 10 10 9 10 10 11 13 14 15 17 21 22 22 21 20 20 20 20 20 19 18 17 16 15 16 15
5 6 7 7 8 6 8 9 11 12 12 13 13 13 13 16 17 19 22 22 24 23 23 24 23 22 21 20 19 19 18 17
6 6 7 8 8 8 8 8 11 12 14 14 14 13 13 14 14 16 19 21 27 26 28 29 28 26 25 23 24 21 20 21
9 10 10 11 11 11 12 12 13 14 16 17 16 16 16 15 15 13 13 16 22 26 30 34 31 29 27 24 22 21 18 20
10 10 11 12 13 14 15 15 16 16 18 20 20 20 19 19 18 18 16 14 17 20 25 30 28 31 34 27 27 30 25 17
10 11 12 14 15 16 17 17 18 18 18 21 22 24 23 24 22 20 17 12 17 21 24 26 28 33 32 28 27 27 25 22
13 14 15 16 17 17 18 18 19 19 18 22 23 24 26 26 25 25 22 17 13 20 24 21 25 33 34 28 36 30 30 28
13 15 18 19 20 21 22 22 23 23 22 23 23 24 27 28 27 27 25 23 24 25 21 17 21 23 24 29 36 31 40 37
14 16 18 19 21 22 24 24 26 23 24 26 23 26 26 28 29 29 29 29 29 29 27 19 19 26 25 23 24 27 33 38
12 14 17 19 21 22 23 25 26 26 27 26 23 28 30 30 28 27 29 32 30 29 29 24 21 18 25 24 25 25 25 30
11 14 16 19 21 23 24 26 26 27 28 25 27 28 25 28 27 28 28 28 29 27 24 27 26 27 25 20 21 25 29 27
11 14 17 20 23 26 27 29 29 29 28 24 23 25 26 26 26 26 24 26 26 26 29 29 31 28 28 27 29 27 31 33
10 13 17 20 22 23 23 26 26 25 23 26 27 29 29 30 29 29 25 29 31 27 22 25 28 25 24 23 20 22 27 28
9 13 15 18 21 21 23 24 24 25 28 28 27 31 33 33 32 30 31 28 28 27 29 23 23 22 21 19 10 15 21 27
9 11 12 14 18 20 23 24 25 26 26 30 32 29 26 26 24 25 26 26 26 25 23 29 30 28 24 24 27 28 19 18
8 9 9 14 16 18 21 23 25 26 27 27 26 26 23 23 23 24 26 27 27 29 30 26 29 34 28 26 21 24 25 23
6 8 8 14 15 16 19 22 24 27 27 28 27 26 26 24 24 26 27 24 23 24 24 25 29 29 35 33 26 17 14 15
5 7 7 13 14 15 18 21 22 25 26 27 27 27 27 27 26 27 26 23 23 22 24 26 25 29 27 33 37 35 24 19
5 6 7 11 13 14 17 19 21 22 24 25 24 23 25 28 25 25 22 21 21 20 20 21 22 24 26 26 26 29 38 34

GFSFLT2_850_spd_147.txt.gz
Wind_Speed
5 5 5 6 6 8 8 8 7 8 7 8 8 10 11 12 13 15 17 19 19 21 20 20 21 21 20 19 17 15 13 12
3 3 3 5 5 7 8 10 9 8 9 9 10 9 10 12 14 16 18 20 22 22 23 23 24 24 23 22 20 18 17 15
5 4 5 6 6 6 7 8 9 10 9 9 10 10 9 10 10 13 16 19 23 25 24 25 26 27 27 25 23 23 20 19
6 5 5 6 6 6 7 8 9 11 12 12 11 11 11 11 11 12 13 15 20 23 26 28 28 30 29 27 27 26 24 22
7 7 8 8 9 9 9 10 11 12 14 16 15 14 14 14 14 12 11 14 14 17 22 26 28 30 30 30 29 28 25 24
9 10 10 11 12 12 12 13 14 14 15 17 19 20 19 19 17 17 16 15 15 16 17 21 25 27 30 30 31 30 27 29
9 10 11 12 12 13 14 15 16 17 18 19 22 23 24 24 23 21 20 18 19 20 21 22 22 24 27 29 33 32 30 31
11 13 14 15 16 17 18 19 20 20 20 21 24 24 24 26 26 27 26 24 22 23 25 25 23 21 24 22 25 30 33 43
10 12 14 15 17 19 21 22 23 23 23 23 24 25 27 29 29 28 28 29 28 27 29 27 25 23 26 23 21 29 31 29
11 12 13 15 19 21 22 24 24 25 25 25 22 25 28 31 32 30 29 31 31 31 30 30 27 24 24 28 24 24 30 29
9 11 14 16 18 21 23 25 26 26 27 26 27 27 29 30 31 32 33 31 30 31 30 28 29 27 27 25 21 23 24 24
8 10 12 15 17 20 23 24 26 27 28 29 30 32 33 34 34 35 34 33 32 31 31 30 27 28 29 31 30 24 25 25
9 11 13 17 21 24 26 28 29 28 30 31 34 36 37 38 39 39 38 36 34 33 34 33 31 26 28 31 34 34 30 30
9 11 15 18 21 23 24 25 25 26 27 29 31 34 35 36 35 36 36 35 30 27 27 30 33 23 20 22 22 30 33 33
9 11 15 18 20 21 21 21 25 28 31 33 35 34 32 29 28 27 28 28 29 28 25 22 26 28 22 12 8 8 13 17
8 10 14 18 20 20 21 23 26 27 28 30 32 30 27 24 24 24 26 27 28 27 23 23 24 25 28 26 24 18 7 12
8 8 14 18 19 19 20 21 23 24 27 30 34 31 26 25 25 26 24 25 24 22 22 21 20 23 24 28 29 29 25 21
6 7 12 16 16 18 19 20 22 24 27 29 33 30 28 25 28 25 24 23 23 23 21 21 21 22 22 22 27 21 16 12
6 7 12 14 15 16 17 19 20 23 25 27 31 29 29 27 29 27 23 22 21 21 19 19 18 22 23 23 23 28 30 25
7 9 10 11 14 15 17 18 19 20 22 24 27 27 28 27 26 25 22 21 20 18 16 17 18 18 17 19 19 23 23 29